Location: Drocourt
(49.0571°N, 1.7669°E)
Time: 15:40:38
(UTC+00:00)

SR - Pass Details

Date: 27 April 2024
Orbit: 579 x 860 km, 66.7° (Epoch: 22 May)

Event Time Altitude Azimuth Distance (km) Brightness Sun altitude
Exits shadow 00:35:15 75° 278° (W) 787 ? -26.2°
Maximum altitude 00:35:29 77° 306° (NW) 779 ? -26.2°
Drops below altitude 10° 00:40:31 10° 34° (NNE) 2,192 ? -26.0°
Sets 00:42:47 0° 36° (NE) 3,069 ? -26.0°
